Flag for Mexico Weather past 2 weeks in Puerto Vallarta, Jalisco, Mexico

Now
86 °F

Broken clouds.


Feels Like: 97 °F
Forecast: 78 / 87 °F
Wind: No wind

Location: Puerto Vallarta / Lic

Current Time: Aug 2, 2015 at 11:57:19 AM

Latest Report: Aug 2, 2015 at 10:48 AM


Visibility: 12 mi

Pressure: 29.84 "Hg

Humidity: 75%

Dew point: 77 °F

Location of Puerto VallartaLocation

Historic Weather in Puerto Vallarta — Graph

°F

Puerto Vallarta temperature yesterday

Maximum temperature yesterday: 88 °F (at 3:47 PM)
Minimum temperature yesterday: 75 °F (at 10:47 AM)
Average temperature yesterday: 81 °F

Past Weeks' High & Low Weather Summary

 TemperatureHumidityPressure
High91 °F (Jul 24, 1:49 PM)100% (Jul 19, 10:46 PM)29.99 "Hg (Jul 19, 10:46 PM)
Low73 °F (Jul 21, 7:48 AM)55% (Jul 19, 11:47 AM)29.78 "Hg (Jul 27, 6:49 PM)
Average83 °F82%29.88 "Hg
* Reported Jul 18 10:46 AM — Aug 2 10:48 AM, Puerto Vallarta, Weather by CustomWeather, © 2015

Note: Actual official high and low records may vary slightly from our data, if they occured in-between our weather recording intervals... More about our weather records

Advertising

Puerto Vallarta weather history for previous 24 hours

 ConditionsComfort  
Time TempWeatherWind HumidityBarometerVisibility
10:48 AM
Sun, Aug 2
86 °FBroken clouds.No wind75%29.84 "Hg12 mi
9:50 AM82 °FBroken clouds.5 mph84%29.85 "Hg12 mi
8:48 AM81 °FMostly cloudy.7 mph89%29.85 "Hg12 mi
7:51 AM79 °FOvercast.5 mph94%29.83 "Hg12 mi
6:46 AM79 °FPartly cloudy.5 mph94%29.80 "Hg12 mi
5:47 AM79 °FMostly cloudy.No wind94%29.81 "Hg12 mi
4:48 AM79 °FMostly cloudy.5 mph94%29.82 "Hg12 mi
3:47 AM79 °FPassing clouds.No wind94%29.83 "Hg12 mi
2:50 AM79 °FPassing clouds.5 mph94%29.83 "Hg12 mi
1:45 AM79 °FPassing clouds.No wind94%29.84 "Hg12 mi
12:48 AM79 °FPassing clouds.No wind94%29.85 "Hg12 mi
11:46 PM
Sat, Aug 1
81 °FPassing clouds.5 mph84%29.86 "Hg12 mi
10:48 PM82 °FPassing clouds.No wind84%29.85 "Hg12 mi
9:46 PM84 °FPassing clouds.No wind79%29.84 "Hg12 mi
5:45 PM86 °FPartly sunny.5 mph75%29.82 "Hg12 mi
3:47 PM88 °FScattered clouds.3 mph66%29.86 "Hg12 mi
2:51 PM86 °FScattered clouds.5 mph75%29.89 "Hg12 mi
1:47 PM84 °FBroken clouds.3 mph74%29.93 "Hg12 mi
12:46 PM81 °FCloudy.2 mph84%29.95 "Hg10 mi
11:50 AM75 °FCloudy.5 mph100%29.94 "Hg8 mi
Weather by CustomWeather, © 2015

See weather overviewHow to use our weather pages